Location: Gettysburg
(39.8310°N, 77.2310°W)
Time: 02:12:32
(UTC-04:00)

ATLAS 2AS CENTAUR R/B - Visible Passes

Search period start: 24 March 2017 00:00
Search period end: 03 April 2017 00:00
Orbit: 909 x 1303 km, 63.7° (Epoch: 19 March)

Date Brightness Start Highest point End Pass type
(mag) Time Alt. Az. Time Alt. Az. Time Alt. Az.
24 Mar 5.8 06:37:32 10° SE 06:41:13 14° ESE 06:44:59 10° ENE visible
27 Mar 5.4 06:12:15 10° SSE 06:17:22 20° ESE 06:22:41 10° ENE visible
28 Mar 5.8 05:31:26 10° ESE 05:33:10 11° E 05:34:56 10° E visible
29 Mar 4.4 06:31:03 10° S 06:38:00 42° ESE 06:45:25 10° NE visible
30 Mar 5.0 05:47:33 10° SSE 05:53:34 27° ESE 05:59:54 10° NE visible
31 Mar 5.3 05:05:05 10° SE 05:09:18 16° ESE 05:13:38 10° ENE visible
01 Apr 3.8 06:07:04 10° S 06:14:20 55° ESE 06:22:08 10° NE visible
02 Apr 4.4 05:23:11 10° S 05:29:49 35° ESE 05:36:52 10° NE visible
